Location: Julian California
(33.0790°N, 116.6010°W)
Time: 13:22:50
(UTC-08:00)

Cosmos 2058 - Pass Details

Date: 12 July 2018
Orbit: 563 x 584 km, 82.5° (Epoch: 18 November)

Event Time Altitude Azimuth Distance (km) Brightness Sun altitude
Exits shadow 20:30:51 - 164° (SSE) 2,651 5.9 -7.0°
Reaches altitude 10° 20:32:56 10° 154° (SSE) 1,851 5.0 -7.4°
Maximum altitude 20:36:34 32° 91° (E) 983 3.7 -8.0°
Drops below altitude 10° 20:40:13 10° 28° (NNE) 1,856 5.6 -8.6°
Sets 20:42:33 0° 19° (NNE) 2,756 6.6 -9.0°
